Weather History for PADE - May, 2013

Change the Weather History Date:

Tuesday, May 28, 2013

  Actual Average (PAOT) Record (PAOT)
Temperature  
Mean Temperature 32 °F 37 °F  
Max Temperature 37 °F 43 °F 71 °F (1947)
Min Temperature 28 °F 32 °F 18 °F (1984)
Degree Days  
Heating Degree Days 32 28  
Month to date heating degree days 946  
Since 1 July heating degree days 14726  
Cooling Degree Days 0    
Month to date cooling degree days  
Year to date cooling degree days  
Moisture  
Dew Point 30 °F    
Average Humidity 89    
Maximum Humidity 100    
Minimum Humidity 75    
Precipitation  
Precipitation 0.00 in 0.01 in 0.35 in (1930)
Month to date precipitation 0.37  
Year to date precipitation 2.63  
Snow  
Snow 0.00 in 0.00 in T in (2009)
Month to date snowfall 1.2  
Since 1 July snowfall 59.8  
Snow Depth -    
Sea Level Pressure  
Sea Level Pressure 29.96 in    
Wind  
Wind Speed 15 mph (West)    
Max Wind Speed 20 mph    
Max Gust Speed 24 mph    
Visibility 5 miles    
Events Fog    
T = Trace of Precipitation, MM = Missing Value Source: NWS Daily Summary

Daily Weather History Graph

Daily Weather History Graph

Search for Another Location

Airport or City:

Trip Planner

Search our weather history database for the weather conditions in past years. The results will help you decide how hot, cold, wet, or windy it might be!

Date:

Astronomy

May. 28, 2013 Rise Set
Actual Time 4:16 AM AKDT 1:24 AM AKDT
Civil Twilight Sun does not set Sun does not set
Nautical Twilight Sun does not set Sun does not set
Astronomical Twilight Sun does not set Sun does not set
Moon 2:55 AM AKDT (5/28) 9:38 AM AKDT (5/28)
Length of Visible Light 24h 00m
Length of Day
21h 08m
Waning Gibbous, 81% of the Moon is Illuminated
May 28
Waning Gibbous
May 31
Last Quarter
Jun 8
New
Jun 16
First Quarter
Jun 23
Full

Hourly Weather History & Observations

Time (AKDT) Temp. Windchill Dew Point Humidity Pressure Visibility Wind Dir Wind Speed Gust Speed Precip Events Conditions
12:53 AM 34.0 °F 25.0 °F 30.9 °F 89% 29.93 in 10.0 mi WSW 12.7 mph - N/A   Clear
1:31 AM 32.0 °F 22.1 °F 30.2 °F 93% 29.93 in 4.0 mi West 13.8 mph - N/A   Scattered Clouds
1:33 AM 32.0 °F 21.6 °F 30.2 °F 93% 29.93 in 1.8 mi West 15.0 mph - N/A   Mostly Cloudy
1:42 AM 32.0 °F 20.5 °F 30.2 °F 93% 29.93 in 0.2 mi West 18.4 mph - N/A Fog Fog
1:53 AM 32.0 °F 23.0 °F 30.9 °F 96% 29.94 in 0.2 mi WSW 11.5 mph - N/A Fog Fog
2:53 AM 32.0 °F 22.1 °F 30.0 °F 92% 29.94 in 0.5 mi WSW 13.8 mph - N/A Fog Fog
3:53 AM 30.9 °F 20.2 °F 30.0 °F 96% 29.94 in 0.8 mi WSW 15.0 mph - N/A   Overcast
4:00 AM 30.2 °F 19.3 °F 30.2 °F 100% 29.93 in 1.0 mi WSW 15.0 mph - N/A   Overcast
4:07 AM 30.2 °F 20.8 °F 28.4 °F 93% 29.93 in 3.0 mi WSW 11.5 mph - N/A   Overcast
4:30 AM 30.2 °F 19.3 °F 28.4 °F 93% 29.93 in 2.0 mi West 15.0 mph - N/A   Overcast
4:43 AM 30.2 °F 19.3 °F 28.4 °F 93% 29.93 in 1.0 mi West 15.0 mph - N/A   Overcast
4:49 AM 30.2 °F 19.8 °F 28.4 °F 93% 29.93 in 3.0 mi WSW 13.8 mph - N/A   Overcast
4:53 AM 30.0 °F 19.5 °F 28.9 °F 96% 29.93 in 2.0 mi West 13.8 mph - N/A   Overcast
5:00 AM 30.2 °F 20.8 °F 28.4 °F 93% 29.93 in 1.8 mi West 11.5 mph - N/A   Overcast
5:15 AM 30.2 °F 18.9 °F 28.4 °F 93% 29.93 in 0.5 mi West 16.1 mph - N/A Fog Light Freezing Fog
5:50 AM 28.4 °F 17.5 °F 28.4 °F 100% 29.93 in 1.5 mi West 13.8 mph - N/A   Overcast
5:53 AM 28.9 °F 18.6 °F 28.0 °F 96% 29.94 in 1.8 mi West 12.7 mph - N/A   Overcast
6:00 AM 30.2 °F 20.2 °F 28.4 °F 93% 29.94 in 2.5 mi West 12.7 mph - N/A   Overcast
7:25 AM 30.2 °F 18.9 °F 28.4 °F 93% 29.95 in 1.0 mi West 16.1 mph 23.0 mph N/A   Overcast
7:53 AM 30.0 °F 18.3 °F 28.0 °F 92% 29.96 in 1.8 mi West 17.3 mph - N/A   Overcast
7:57 AM 30.2 °F 18.1 °F 28.4 °F 93% 29.96 in 3.0 mi West 18.4 mph - N/A   Overcast
8:36 AM 28.4 °F 15.4 °F 28.4 °F 100% 29.95 in 1.8 mi West 19.6 mph - N/A   Overcast
8:53 AM 30.0 °F 17.9 °F 28.0 °F 92% 29.96 in 2.0 mi West 18.4 mph 24.2 mph N/A   Overcast
9:01 AM 30.2 °F 18.9 °F 28.4 °F 93% 29.96 in 3.0 mi West 16.1 mph - N/A   Overcast
9:53 AM 30.9 °F 19.8 °F 28.9 °F 92% 29.96 in 5.0 mi West 16.1 mph - N/A   Overcast
10:53 AM 32.0 °F 21.2 °F 28.9 °F 88% 29.97 in 10.0 mi West 16.1 mph - N/A   Overcast
11:34 AM 33.8 °F 23.9 °F 28.4 °F 81% 29.97 in 10.0 mi West 15.0 mph - N/A   Overcast
11:53 AM 33.1 °F 22.6 °F 28.9 °F 85% 29.97 in 10.0 mi West 16.1 mph 23.0 mph N/A   Overcast
12:53 PM 35.1 °F 24.8 °F 30.0 °F 82% 29.97 in 10.0 mi West 17.3 mph - N/A   Overcast
1:50 PM 35.6 °F 26.6 °F 30.2 °F 81% 29.98 in 10.0 mi West 13.8 mph - N/A   Overcast
1:53 PM 37.0 °F 28.9 °F 30.9 °F 79% 29.98 in 10.0 mi West 12.7 mph - N/A   Overcast
2:13 PM 37.4 °F 28.9 °F 30.2 °F 75% 29.98 in 10.0 mi WNW 13.8 mph - N/A   Scattered Clouds
2:53 PM 37.0 °F 28.1 °F 30.0 °F 76% 29.98 in 10.0 mi West 15.0 mph - N/A   Clear
3:53 PM 37.9 °F 28.9 °F 30.9 °F 76% 29.98 in 10.0 mi WNW 16.1 mph - N/A   Clear
5:51 PM 37.4 °F 28.9 °F 30.2 °F 75% 29.98 in 10.0 mi WNW 13.8 mph - N/A   Partly Cloudy
5:53 PM 37.0 °F 28.5 °F 30.9 °F 79% 29.98 in 10.0 mi NW 13.8 mph - N/A   Partly Cloudy
6:16 PM 37.4 °F 28.5 °F 30.2 °F 75% 29.98 in 10.0 mi WNW 15.0 mph - N/A   Mostly Cloudy
6:53 PM 35.1 °F 25.5 °F 30.9 °F 85% 29.98 in 10.0 mi West 15.0 mph - N/A   Overcast
7:24 PM 35.6 °F 25.5 °F 30.2 °F 81% 29.97 in 10.0 mi WNW 17.3 mph - N/A   Overcast
7:53 PM 35.1 °F 24.8 °F 30.9 °F 85% 29.97 in 10.0 mi WNW 17.3 mph - N/A   Overcast
8:53 PM 35.1 °F 25.2 °F 30.9 °F 85% 29.98 in 10.0 mi West 16.1 mph - N/A   Overcast
9:53 PM 34.0 °F 23.8 °F 30.9 °F 89% 29.98 in 10.0 mi West 16.1 mph - N/A   Overcast
10:53 PM 34.0 °F 23.4 °F 30.9 °F 89% 29.98 in 10.0 mi West 17.3 mph - N/A   Overcast
11:51 PM 33.8 °F 23.5 °F 30.2 °F 87% 29.98 in 2.5 mi West 16.1 mph - N/A   Overcast
11:53 PM 33.1 °F 22.2 °F 30.0 °F 89% 29.98 in 2.5 mi West 17.3 mph - N/A   Overcast